Volver al catálogo

STARLINK-35285

ActivoComunicacionesSSO
NORAD 65807·PAYLOAD·🇺🇸 United States

Lanzado Sep 26, 2025 desde Vandenberg Space Force Base

Loading…

Próximos Pases (próximas 24 horas)

TLE

ActualizadoSource: CelesTrak SupGP

Época: Sep 14, 2026, 21:04 UTC

1 65807C 25218S   26257.87826389  .00007478  00000+0  23218-3 0  2578
2 65807  97.2843 115.3074 0001559  92.5269 152.9635 15.33427196    18

Sigue STARLINK-35285 en tiempo real con AllMySat

Download on the App Store